Dewpoint
1 1 1 1 -0 -1 -1 -0 -1 -2 -0 -1 2 2 2 10 10 10 10 10 11 9 10 6 4 4 4 5 7 8 8 7 6 3 -0 -0 3 3 4 8 8 7 7 4
2 3 0 -1 0 1 0 0 0 -2 -2 -0 -0 -0 -0 8 10 10 10 10 10 10 10 9 7 5 5 5 5 6 8 8 5 1 -2 2 3 6 8 8 9 8 7 4
2 -0 0 1 1 1 -0 0 -0 -1 -1 -1 -1 -1 -0 0 7 9 9 10 9 10 8 9 9 8 7 5 5 6 7 7 8 4 1 2 7 8 9 9 8 8 6 5
1 -0 1 2 1 -0 1 -1 -1 -1 -0 0 -2 1 -2 -2 2 5 9 9 9 7 8 8 9 9 9 8 7 6 6 6 8 8 6 6 6 8 7 7 8 8 6 6
1 1 2 2 1 -0 1 -1 -0 -0 1 1 -1 -0 -1 -2 -2 0 4 8 8 7 6 6 6 7 8 7 7 7 7 7 8 9 9 8 7 7 8 8 10 8 6 6
-1 -0 -0 0 -1 -0 -1 0 0 1 1 4 1 -0 -0 -2 -2 -3 -3 2 7 6 4 4 5 7 7 7 7 7 7 8 9 9 8 8 8 7 7 8 9 9 7 7
0 0 0 -0 1 -1 -1 0 3 4 5 5 2 3 1 -1 -2 -2 -1 -1 1 4 6 5 5 6 7 7 8 7 7 8 8 8 8 8 7 8 8 9 10 9 8 7
0 0 0 0 0 1 1 1 5 4 4 2 2 3 -2 -1 -2 1 1 -1 -2 0 4 6 5 5 6 7 7 8 8 8 7 8 8 8 6 7 9 10 10 9 8 8
3 1 -1 0 0 -1 1 2 0 4 4 6 2 0 -3 -3 -1 2 2 -1 -2 -2 -0 3 6 6 6 6 6 6 8 8 7 7 8 8 7 6 6 7 10 9 9 8
1 1 1 1 1 0 0 -0 3 3 5 5 1 1 -2 -2 -0 -1 2 2 -0 0 0 1 2 4 5 6 6 7 8 7 7 6 6 8 7 7 8 9 9 9 9 7
-0 -1 -1 1 2 2 2 2 1 1 2 3 4 1 -1 -3 -1 -0 0 1 0 0 0 1 2 2 3 4 4 5 6 6 6 6 5 7 8 8 9 9 9 9 8 7
0 2 3 1 -1 -1 0 2 2 5 3 4 4 2 -3 -3 -4 -3 -1 0 1 1 2 2 2 2 3 4 4 4 5 5 5 6 6 8 8 6 7 8 6 7 8 7
1 1 1 -1 -1 1 2 1 1 1 2 4 7 3 -4 -4 -4 -5 -4 -2 1 3 2 2 2 3 2 2 3 4 5 5 7 7 7 7 6 7 7 7 8 8 7 7
-2 1 1 1 -1 1 3 2 1 2 5 4 3 1 -1 -2 -3 -4 -5 -6 -5 -0 4 6 6 6 6 6 6 6 7 7 7 8 8 8 9 9 8 8 7 7 6 5
1 2 1 -1 -3 -0 1 1 2 2 2 4 2 1 -1 -2 -3 -4 -4 -4 -2 -0 3 5 6 7 7 8 8 8 9 9 10 10 9 9 8 8 7 6 5 3 1 1
1 2 1 1 -0 -0 1 0 1 1 0 1 -0 0 -2 -3 -4 -2 -1 3 3 4 4 4 5 6 6 7 7 7 7 8 9 8 8 7 7 6 4 2 1 -0 -1 -0
2 3 3 3 0 0 4 2 1 1 0 1 2 1 -2 -3 -2 -1 1 2 3 3 3 2 2 2 2 3 4 5 5 6 7 7 6 6 5 3 1 -0 -1 -2 -1 -0
3 3 2 4 2 5 0 -2 -2 0 -1 -2 -2 -3 -3 -2 -0 -0 1 1 1 2 2 1 1 0 1 3 4 5 5 6 5 5 3 2 0 -0 -1 -1 -1 -0 -0 -0
1 2 4 6 4 2 -1 -2 -1 -0 -2 -2 -2 -3 -1 0 0 0 -0 -1 -1 -0 -0 -0 0 1 2 3 4 5 4 4 4 2 0 -1 -1 -1 -1 -1 -1 -0 -2 -9
1 1 5 3 5 6 2 -2 -4 -4 1 -3 -3 -0 1 0 2 1 -1 -1 -0 0 1 1 2 2 2 3 4 4 3 2 1 -0 -1 -1 -1 -1 -1 0 -3 -8 -9 -11
4 3 4 3 6 4 -0 -3 -5 2 1 -3 -2 -0 1 0 -1 -1 -1 -0 -0 0 1 1 2 2 2 2 2 1 0 -1 -2 -2 -2 -2 -1 -0 -2 -8 -11 -14 -15 -16
5 5 5 3 5 5 -2 -4 1 1 -5 -5 -2 -0 1 -1 -1 -1 -1 -0 -0 -0 -0 -0 0 -0 -1 -1 -1 -1 -1 -1 -1 -1 -2 -5 -9 -11 -14 -14 -14 -14 -13 -13
5 4 5 4 5 2 -3 -2 -5 -5 -5 -4 -2 -1 -1 -1 -1 -1 -1 -1 -1 -1 -1 -2 -1 -2 -2 -2 -2 -2 -3 -4 -6 -9 -12 -13 -13 -13 -14 -14 -15 -17 -21 -28
2 1 4 3 2 1 -1 -3 -3 -4 -4 -4 -2 -2 -1 -2 -1 -1 -1 -2 -2 -2 -3 -3 -3 -3 -3 -3 -4 -5 -8 -11 -12 -13 -14 -15 -15 -17 -20 -28 -34 -35 -35 -35
3 3 3 3 2 3 1 -0 -2 -2 -2 -3 -1 -1 -1 -2 -1 -1 -2 -2 -3 -3 -3 -3 -3 -4 -6 -7 -9 -10 -11 -12 -14 -16 -17 -20 -26 -32 -35 -36 -36 -35 -34 -33
2 3 4 4 1 1 -1 -2 -1 -1 -2 -2 -2 -1 -1 -2 -1 -1 -2 -3 -3 -3 -4 -4 -5 -6 -8 -10 -12 -13 -15 -16 -18 -21 -27 -31 -34 -36 -36 -36 -35 -34 -33 -31
Wind_Speed
1 2 5 7 4 1 1 0 4 1 4 2 3 6 9 17 14 13 14 15 18 25 25 26 26 30 34 35 29 28 26 24 25 27 27 28 29 28 27 23 21 18 16 15
1 4 6 3 2 3 3 2 3 2 2 2 4 4 5 16 21 21 19 19 22 22 22 29 29 30 32 32 32 30 27 26 25 26 26 28 28 27 26 25 25 23 18 18
5 2 3 4 2 3 3 3 2 2 2 2 3 3 2 5 10 15 19 20 20 24 27 30 33 33 32 34 34 31 30 28 26 26 26 28 28 28 31 28 26 21 20 20
4 2 5 3 4 6 3 4 4 4 2 2 2 3 3 4 10 13 23 24 28 28 29 28 31 33 35 35 33 32 31 30 29 29 28 29 31 32 31 28 24 20 21 21
4 5 5 4 5 5 4 3 0 2 3 0 0 2 3 1 6 15 22 30 30 31 31 32 33 34 33 31 31 30 31 31 31 31 31 31 32 33 31 28 22 21 22 23
4 2 3 5 4 4 3 2 5 4 2 1 1 3 4 4 3 3 13 24 30 36 36 34 34 32 32 31 32 31 31 32 32 31 31 32 31 32 32 31 27 24 25 26
1 3 2 3 3 2 2 2 1 0 1 3 4 3 7 4 7 6 10 13 26 38 40 38 36 36 35 34 33 34 33 32 32 31 30 30 30 35 35 36 28 26 27 27
6 4 7 5 5 5 5 5 3 3 2 0 1 4 3 3 9 10 11 12 12 24 38 42 41 39 37 35 34 34 34 34 32 32 31 30 27 34 35 37 29 25 27 23
5 4 1 3 3 5 4 4 2 6 2 1 2 3 8 2 2 5 9 7 4 11 23 33 38 40 39 36 34 34 33 32 32 31 31 31 30 32 33 35 34 28 29 28
7 2 2 1 3 4 2 6 3 1 4 3 2 3 3 4 3 4 5 5 5 5 9 16 23 28 31 33 31 31 31 28 28 25 25 32 33 32 34 33 31 29 29 27
5 3 1 2 5 8 3 2 5 3 1 2 1 3 5 4 2 3 3 3 1 2 2 5 8 11 15 20 22 23 26 25 28 28 26 26 28 31 33 30 27 27 26 30
6 4 4 6 1 1 3 6 5 3 4 0 1 5 3 5 6 8 7 3 3 6 5 4 6 5 6 9 12 15 18 20 22 23 24 24 23 20 23 25 20 24 24 26
8 2 2 1 1 2 3 4 4 4 3 7 4 4 1 3 3 7 9 6 4 8 10 9 9 9 10 11 14 14 14 15 16 18 20 20 21 21 21 20 17 15 16 20
14 4 6 9 7 5 4 6 7 5 3 5 6 6 6 7 7 8 8 8 7 6 8 8 7 8 10 10 11 13 15 15 17 18 19 20 19 17 13 12 11 14 16 17
5 7 6 5 5 6 6 6 11 10 7 8 8 9 9 6 6 5 9 7 1 4 5 6 6 7 7 7 8 9 11 14 15 14 14 11 10 9 9 10 12 13 16 19
2 4 5 4 4 7 6 5 8 10 4 9 7 6 9 4 3 1 2 6 10 12 12 11 9 8 7 5 3 3 4 4 5 6 7 6 6 8 10 11 13 15 18 19
3 6 4 5 2 3 3 8 10 6 5 7 8 11 6 6 7 7 8 12 14 15 17 18 17 14 12 9 6 4 3 3 3 3 4 6 7 9 10 11 12 12 7 7
5 5 1 3 1 5 2 2 3 8 5 9 5 4 6 5 8 10 11 14 16 16 17 17 15 13 11 9 8 7 6 6 6 8 9 10 11 12 12 10 8 3 6 13
3 5 3 4 4 4 1 4 7 7 15 9 13 7 8 16 12 5 12 14 16 16 16 15 13 12 12 11 11 9 11 11 11 12 14 15 14 11 10 6 7 13 13 8
4 3 4 3 5 8 6 4 7 4 12 9 12 11 19 17 8 6 15 15 16 15 14 14 15 15 13 14 13 12 16 16 16 14 12 10 6 5 9 11 8 7 9 13
3 2 7 3 4 6 6 5 12 5 10 9 19 19 27 10 3 23 21 18 16 16 16 16 16 16 16 16 15 18 18 17 14 9 5 3 6 6 5 5 8 11 14 17
7 7 4 3 2 7 11 8 9 8 6 11 19 24 24 16 21 27 23 21 19 19 19 18 20 21 20 18 14 16 13 10 6 2 1 0 1 2 5 8 11 14 18 21
5 5 5 9 7 3 26 9 23 10 8 9 23 30 32 26 28 28 27 24 22 21 22 22 22 23 20 16 12 11 11 7 4 3 2 0 3 6 9 13 16 18 21 23
5 4 4 3 5 7 16 24 14 18 15 11 24 36 33 29 31 29 28 27 26 24 24 23 21 20 19 14 11 8 8 6 4 2 1 4 7 10 13 16 18 19 21 23
5 6 5 4 5 3 16 25 25 21 15 14 24 33 31 29 31 31 31 29 28 26 25 22 20 19 18 14 11 10 7 4 1 2 5 8 12 14 17 18 19 20 20 22
7 6 6 7 13 11 15 28 26 21 21 22 30 30 28 29 32 32 30 29 29 27 24 21 19 17 16 13 10 8 4 1 3 6 9 12 15 17 18 19 20 21 22 22
Wind_Direction
64 160 225 223 190 170 166 128 276 151 203 183 249 255 200 192 203 209 211 202 197 202 198 195 191 192 196 200 205 208 214 213 215 212 212 214 215 218 222 226 226 227 226 230
66 235 227 207 192 174 244 158 258 262 24 154 278 299 204 188 208 208 204 215 210 206 201 205 206 203 206 212 218 220 219 218 217 216 217 220 220 223 230 236 232 233 222 236
180 211 125 174 213 219 221 189 203 286 336 226 292 326 198 207 228 217 222 224 224 215 211 208 211 214 216 219 221 222 221 221 222 222 220 224 225 232 235 240 237 231 226 239
233 229 193 185 227 187 240 221 175 206 240 297 356 285 274 214 225 224 220 221 223 223 223 216 214 218 219 222 223 225 227 226 227 228 226 230 232 237 245 251 244 234 232 245
232 170 179 193 217 181 226 180 168 108 89 188 173 214 263 182 233 233 223 223 225 223 221 221 220 221 222 223 224 226 230 232 234 234 234 237 241 244 251 255 245 233 239 244
209 195 185 208 194 198 107 98 46 55 105 204 213 214 282 236 222 274 245 232 227 225 226 227 227 229 227 227 227 227 230 232 235 237 237 240 246 250 252 253 250 241 239 239
247 220 225 188 145 121 112 93 268 154 165 216 131 166 246 250 264 255 284 253 234 230 226 227 229 229 230 231 232 232 233 236 238 240 242 244 250 251 251 253 250 247 239 235
195 258 185 183 197 179 183 196 171 220 198 243 177 227 239 229 293 291 301 285 245 233 230 230 231 234 236 236 237 238 238 238 243 247 249 247 255 254 253 254 252 247 246 243
152 247 193 207 153 159 167 202 136 108 48 287 266 276 281 340 314 334 344 356 280 242 234 235 235 236 241 243 244 244 242 243 247 253 254 253 256 255 258 261 259 252 246 237
195 150 195 138 157 69 186 148 128 35 175 218 255 271 246 326 324 351 349 337 317 293 247 238 239 241 244 247 249 250 249 251 254 256 269 261 261 262 264 265 265 260 252 237
139 135 197 140 201 180 155 200 59 120 148 193 199 245 214 232 237 287 288 275 310 352 300 252 243 246 248 252 254 256 256 255 253 252 259 270 269 266 266 266 267 259 248 235
187 149 174 195 345 208 172 177 162 165 200 272 269 249 220 245 265 282 265 227 175 138 139 157 170 188 213 236 245 248 249 251 257 260 264 268 271 267 264 260 256 248 246 238
173 179 156 311 78 37 219 198 149 109 101 190 193 252 189 290 284 268 275 261 224 193 187 191 190 191 196 203 214 233 248 259 261 258 256 261 259 255 255 253 254 254 239 234
141 140 168 221 220 156 196 196 184 155 160 181 221 244 273 281 285 285 285 288 276 257 234 225 221 223 228 238 239 241 247 243 246 250 254 261 258 261 263 252 238 232 225 216
140 191 178 225 219 186 200 192 177 199 207 195 237 208 249 253 254 277 301 308 271 184 194 207 211 216 222 232 241 248 258 260 262 264 263 270 273 259 242 223 218 212 205 208
185 196 156 195 165 194 221 207 197 212 214 244 245 246 233 244 214 282 134 121 107 104 103 108 128 138 153 173 195 228 245 251 254 255 251 234 237 216 205 202 200 196 206 219
169 141 137 221 159 167 310 206 192 192 194 198 208 226 168 194 182 151 135 131 120 113 108 106 104 104 106 109 110 122 139 175 194 181 166 175 183 187 188 190 196 202 221 286
157 139 91 156 152 221 232 73 183 221 237 224 260 232 207 170 139 138 143 137 125 118 110 105 102 101 99 99 104 101 99 101 109 122 135 146 159 162 157 157 171 234 306 279
170 137 131 156 202 299 215 193 177 183 253 214 227 203 152 141 128 106 143 140 128 122 117 115 111 107 107 104 98 105 107 110 116 125 137 144 149 167 193 216 264 288 304 311
92 58 170 150 177 221 197 215 164 126 279 202 192 176 160 159 173 169 162 145 134 129 124 123 119 116 116 110 109 115 115 123 126 135 146 160 186 249 271 294 326 300 295 295
127 79 188 160 215 280 244 160 145 161 257 207 197 177 166 180 178 161 159 150 143 134 130 128 126 125 119 117 124 120 123 123 127 139 157 231 277 292 311 288 288 296 298 298
174 159 180 112 135 258 156 125 177 210 191 219 195 181 168 163 148 152 156 151 144 139 136 136 133 125 121 122 128 121 122 123 137 164 208 350 0 301 294 300 304 306 306 306
254 201 183 192 203 191 184 209 204 196 204 207 197 185 175 159 156 158 155 151 148 147 144 143 140 134 131 132 133 132 124 126 126 130 136 234 310 313 314 314 314 315 315 316
257 207 187 131 206 219 213 218 215 226 231 241 209 184 182 169 163 160 157 154 153 152 149 147 143 140 138 140 140 134 130 136 145 165 313 321 318 321 322 324 326 329 330 330
195 153 162 279 270 297 244 226 228 229 228 218 194 188 188 179 168 167 162 160 158 155 151 151 150 145 141 142 140 136 139 141 179 325 328 327 329 330 331 333 335 338 339 339
188 178 174 215 212 200 234 232 217 215 207 199 187 180 182 184 174 168 162 162 160 158 156 155 151 150 143 144 145 141 137 109 332 332 334 337 338 338 337 338 340 341 343 345
Height
1502 1503 1504 1501 1502 1502 1503 1503 1502 1499 1497 1499 1499 1497 1497 1501 1504 1505 1506 1508 1511 1512 1516 1519 1524 1528 1532 1535 1537 1540 1543 1545 1548 1550 1552 1554 1555 1559 1561 1564 1566 1568 1569 1572
1504 1503 1498 1500 1502 1501 1503 1501 1502 1501 1497 1498 1497 1493 1493 1496 1495 1498 1501 1505 1506 1510 1514 1517 1520 1523 1526 1529 1532 1536 1539 1543 1545 1547 1549 1551 1554 1556 1559 1561 1562 1563 1565 1568
1501 1497 1496 1497 1499 1501 1500 1499 1499 1501 1497 1499 1495 1492 1494 1496 1497 1498 1498 1500 1504 1505 1508 1511 1514 1517 1521 1523 1526 1530 1533 1537 1541 1544 1546 1548 1551 1552 1554 1554 1557 1559 1563 1565
1498 1495 1496 1497 1498 1497 1500 1494 1494 1498 1499 1502 1498 1505 1495 1492 1494 1494 1493 1495 1496 1500 1503 1507 1509 1511 1513 1518 1523 1527 1530 1533 1537 1540 1542 1543 1546 1548 1550 1552 1554 1557 1559 1560
1494 1493 1495 1496 1494 1494 1494 1492 1493 1495 1499 1501 1503 1504 1489 1494 1492 1486 1486 1486 1489 1493 1497 1501 1503 1506 1511 1515 1517 1522 1525 1529 1532 1535 1537 1540 1543 1546 1547 1549 1550 1552 1554 1556
1490 1490 1490 1488 1489 1491 1492 1495 1498 1502 1502 1510 1501 1501 1492 1486 1482 1480 1479 1482 1483 1486 1489 1494 1498 1503 1506 1510 1514 1517 1520 1524 1527 1530 1533 1536 1539 1541 1543 1544 1545 1547 1549 1551
1491 1489 1486 1487 1489 1490 1492 1497 1506 1508 1510 1507 1503 1505 1488 1477 1477 1476 1474 1474 1474 1478 1483 1487 1491 1495 1499 1503 1507 1511 1515 1518 1521 1524 1527 1530 1533 1535 1537 1539 1540 1542 1543 1544
1491 1496 1484 1483 1483 1486 1492 1493 1503 1511 1510 1503 1502 1499 1479 1475 1475 1473 1471 1467 1469 1472 1476 1480 1484 1488 1492 1497 1501 1505 1509 1513 1516 1518 1521 1524 1526 1528 1531 1532 1535 1537 1538 1539
1492 1490 1480 1480 1480 1481 1490 1494 1493 1508 1522 1512 1498 1491 1477 1475 1473 1471 1467 1464 1466 1469 1471 1474 1479 1483 1486 1491 1495 1499 1503 1507 1510 1513 1515 1518 1521 1523 1525 1528 1529 1531 1532 1533
1476 1485 1480 1480 1481 1484 1485 1487 1497 1503 1509 1512 1502 1498 1484 1476 1473 1472 1469 1467 1466 1467 1468 1470 1473 1478 1482 1486 1491 1495 1499 1503 1506 1510 1512 1514 1516 1519 1520 1522 1523 1525 1528 1531
1471 1475 1486 1481 1480 1479 1487 1489 1495 1494 1501 1500 1506 1492 1476 1473 1471 1471 1471 1468 1466 1466 1467 1469 1471 1474 1478 1483 1487 1491 1496 1500 1502 1506 1508 1510 1511 1513 1514 1516 1518 1520 1523 1524
1465 1473 1486 1478 1476 1475 1476 1479 1484 1493 1499 1506 1505 1491 1469 1470 1471 1470 1468 1468 1467 1467 1468 1470 1471 1474 1477 1481 1485 1488 1492 1495 1499 1502 1504 1505 1506 1508 1508 1510 1512 1514 1517 1520
1462 1475 1481 1479 1480 1478 1477 1478 1480 1487 1493 1498 1500 1485 1469 1468 1467 1466 1466 1465 1466 1466 1468 1470 1472 1474 1477 1479 1482 1486 1490 1493 1496 1498 1499 1501 1502 1502 1503 1505 1508 1511 1513 1516
1449 1466 1467 1474 1469 1470 1477 1474 1476 1476 1489 1483 1484 1475 1467 1464 1465 1462 1462 1463 1463 1466 1467 1468 1470 1473 1475 1478 1481 1484 1487 1489 1491 1492 1494 1495 1496 1498 1501 1503 1505 1508 1511 1514
1448 1459 1465 1463 1462 1464 1463 1464 1472 1472 1470 1475 1468 1474 1463 1460 1460 1460 1461 1460 1460 1461 1463 1465 1468 1470 1473 1476 1479 1481 1483 1485 1487 1489 1490 1492 1494 1496 1498 1501 1503 1506 1509 1512
1449 1455 1460 1463 1463 1463 1462 1461 1465 1467 1468 1471 1469 1468 1457 1458 1458 1460 1459 1460 1461 1461 1462 1463 1466 1468 1471 1473 1475 1478 1480 1482 1484 1486 1488 1490 1492 1495 1498 1501 1503 1505 1507 1507
1451 1455 1462 1463 1467 1465 1471 1460 1458 1458 1458 1456 1464 1453 1454 1455 1457 1458 1459 1459 1461 1461 1462 1464 1466 1468 1470 1472 1474 1476 1478 1480 1482 1484 1487 1490 1493 1496 1498 1500 1502 1505 1507 1509
1449 1454 1462 1468 1474 1473 1446 1449 1449 1450 1448 1450 1450 1449 1449 1451 1456 1457 1459 1459 1460 1462 1462 1464 1466 1469 1471 1472 1474 1476 1478 1480 1482 1485 1488 1491 1493 1496 1499 1502 1503 1505 1506 1506
1440 1451 1463 1464 1462 1454 1446 1446 1447 1448 1436 1438 1441 1444 1450 1453 1457 1460 1459 1460 1461 1462 1463 1465 1467 1470 1471 1473 1475 1477 1478 1481 1484 1487 1490 1493 1495 1497 1498 1500 1502 1503 1502 1502
1444 1445 1446 1467 1458 1457 1439 1434 1437 1440 1441 1431 1434 1439 1445 1451 1453 1454 1457 1459 1460 1462 1464 1466 1467 1469 1472 1474 1476 1478 1480 1483 1486 1489 1492 1495 1496 1498 1498 1499 1499 1499 1498 1498
1446 1449 1447 1459 1450 1442 1431 1432 1435 1448 1433 1425 1427 1431 1438 1442 1443 1447 1454 1457 1459 1461 1464 1466 1468 1470 1473 1476 1478 1479 1483 1485 1489 1491 1493 1494 1494 1495 1496 1496 1496 1495 1494 1493
1431 1439 1445 1452 1451 1441 1424 1433 1434 1420 1421 1422 1425 1428 1434 1437 1441 1446 1452 1455 1459 1461 1464 1467 1468 1470 1474 1478 1480 1482 1485 1487 1490 1491 1492 1493 1493 1494 1494 1494 1493 1492 1490 1488
1431 1417 1421 1422 1419 1412 1412 1410 1412 1414 1416 1418 1422 1426 1430 1434 1439 1444 1448 1453 1457 1461 1464 1467 1469 1471 1475 1479 1481 1483 1485 1487 1489 1490 1491 1492 1492 1492 1491 1490 1489 1487 1485 1482
1422 1414 1412 1414 1407 1407 1406 1408 1410 1411 1413 1415 1418 1421 1426 1429 1435 1441 1447 1452 1456 1460 1463 1467 1469 1472 1475 1479 1481 1483 1484 1486 1488 1489 1489 1490 1490 1489 1488 1486 1484 1482 1479 1476
1409 1410 1409 1409 1404 1405 1403 1402 1404 1408 1410 1412 1417 1421 1424 1427 1433 1437 1443 1449 1454 1459 1464 1468 1470 1472 1475 1478 1480 1482 1484 1486 1487 1487 1486 1486 1485 1484 1483 1481 1479 1477 1475 1472
1398 1398 1402 1399 1388 1389 1388 1392 1398 1402 1405 1409 1413 1418 1424 1427 1429 1437 1443 1449 1454 1458 1463 1467 1470 1473 1475 1478 1480 1482 1483 1485 1485 1484 1483 1482 1480 1479 1477 1475 1474 1472 1469 1466